This is the latest recevied weather packets stored in our database for station/object WD4HMR. If no packets are shown the sender has not sent any weather packets the latest 1 day(s).
| Time | Temp. | Humidity | Pressure | Rain* | Wind** | Luminosity | Snow |
|---|---|---|---|---|---|---|---|
| 1778084854 | 24.44° C | 77% | 1015.3 hPa | 0 mm | - | - | - |
| 1778083894 | 24.44° C | 76% | 1015.4 hPa | 0 mm | - | - | - |
| 1778083515 | 24.44° C | 76% | 1015.4 hPa | 0 mm | - | - | - |
| 1778083095 | 24.44° C | 76% | 1015.4 hPa | 0 mm | - | - | - |
| 1778082934 | 24.44° C | 77% | 1015.4 hPa | 0 mm | - | - | - |
| 1778082676 | 23.89° C | 77% | 1015.4 hPa | 0 mm | - | - | - |
| 1778082256 | 23.89° C | 77% | 1015.5 hPa | 0 mm | - | - | - |
| 1778080054 | 22.78° C | 81% | 1015.5 hPa | 0 mm | - | - | - |
| 1778077682 | 21.67° C | 83% | 1015.4 hPa | 0 mm | - | - | - |
| 1778077263 | 21.67° C | 84% | 1015.4 hPa | 0 mm | - | - | - |
| 1778077174 | 21.11° C | 83% | 1015.4 hPa | 0 mm | - | - | - |
| 1778077006 | 21.11° C | 84% | 1015.4 hPa | 0 mm | - | - | - |
| 1778076694 | 21.67° C | 84% | 1015.4 hPa | 0 mm | - | - | - |
| 1778076580 | 21.67° C | 84% | 1015.3 hPa | 0 mm | - | - | - |
| 1778074773 | 20.56° C | 86% | 1015.1 hPa | 0 mm | - | - | - |
| 1778073190 | 20° C | 89% | 1014.7 hPa | 0 mm | - | - | - |
| 1778072340 | 19.44° C | 90% | 1014.4 hPa | 0 mm | - | - | - |
| 1778071919 | 19.44° C | 90% | 1014.3 hPa | 0 mm | - | - | - |
| 1778071500 | 19.44° C | 90% | 1014.1 hPa | 0 mm | - | - | - |
| 1778071080 | 19.44° C | 90% | 1014.1 hPa | 0 mm | - | - | - |
| 1778069013 | 19.44° C | 90% | 1013.8 hPa | 0 mm | - | - | - |
| 1778068627 | 19.44° C | 90% | 1013.6 hPa | 0 mm | - | - | - |
| 1778068206 | 19.44° C | 90% | 1013.6 hPa | 0 mm | - | - | - |
| 1778068054 | 19.44° C | 90% | 1013.6 hPa | 0 mm | - | - | - |
| 1778066946 | 19.44° C | 89% | 1013.6 hPa | 0 mm | - | - | - |
* Rain latest hour (hover to see other rain measurements)
** Current wind speed in m/s (hover to see current wind gust speed)